Regional Weather Roundup
Issued by NWS Wakefield, VA

Home | Current Version | Previous Version | Text Only | Print | Product List | Glossary On
Versions: 1 2 3 4 5 6 7 8 9 10 11 12 13 14 15 16 17 18 19 20 21 22 23 24 25 26 27 28 29 30 31 32 33 34 35 36 37 38 39 40 41 42 43 44 45 46 47 48 49 50
000
ASUS41 KAKQ 311310
RWRAKQ

REGIONAL WEATHER ROUNDUP
NATIONAL WEATHER SERVICE WAKEFIELD VA
800 AM EST SAT JAN 31 2015

Note: "fair" indicates few or no clouds below 12,000 feet with no
significant weather and/or obstructions to visibility. * = Denotes
station may not report precipitation (e.g., rain,snow,etc.),
thunder or fog.

VAZ042-051-052>054-056-311400-
NORTHERN VIRGINIA

CITY           SKY/WX    TMP DP  RH WIND       PRES   REMARKS
WASH NATIONAL  CLEAR     22   2  42 NW12      30.35R WCI  10
DULLES         CLEAR     18   2  49 NW17      30.32R WCI   3
FORT BELVOIR   CLEAR     19   2  47 NW12      30.35R WCI   7
QUANTICO       CLEAR     20   3  48 NW3       30.37R
FREDERICKSBRG* CLEAR     18   9  69 CALM      30.35R
STAFFORD*      FAIR      19   2  48 CALM      30.38R
WARRENTON      CLEAR     21   8  57 CALM      30.32R
CULPEPER*      CLEAR     16   9  73 CALM      30.33R
MANASSAS*      CLEAR     19   7  58 NW6       30.35R
LEESBURG*      CLEAR     19   5  53 N10       30.34R WCI   8
WINCHESTER     CLEAR     19   0  42 CALM      30.32S
FRONT ROYAL*   FAIR      18   1  49 CALM      30.30S
LURAY*         FAIR      19   9  63 CALM      30.29S
$$

VAZ048-049-060>072-079>083-311400-
CENTRAL AND SOUTH CENTRAL VIRGINIA

CITY           SKY/WX    TMP DP  RH WIND       PRES   REMARKS
RICHMOND       CLEAR     21   9  59 NW6       30.34R
CHESTERFIELD*  FAIR      18   1  49 CALM      30.35R
PETERSBURG*    CLEAR     17  14  86 CALM      30.36R
HANOVER        CLEAR     16  10  77 CALM      30.36R
TAPPAHANNOCK*  CLEAR     21   3  45 CALM      30.35R
QUINTON*       FAIR      17   9  69 CALM      30.35R
CHARLOTTSVILLE CLEAR     22   1  40 CALM      30.29S
GORDONSVILLE*  FAIR      13   9  81 CALM      30.31S
ORANGE*        CLEAR     16  12  86 CALM      30.33S
LOUISA*          N/A     12   9  85 CALM      30.30S
BUMPASS*       FAIR      14   8  76 CALM      30.33R
FARMVILLE*     CLEAR     17  14  88 CALM      30.32R
CREWE*         FAIR      22  11  62 CALM      30.33R
FORT PICKETT*  FAIR      19  12  74 CALM      30.32R
CHASE CITY*    FAIR      23  14  70 CALM      30.33R
CLARKSVILLE*   FAIR      23  10  58 CALM      30.33S
SOUTH HILL*    FAIR      20  10  64 CALM      30.39R
LAWRENCEVILLE* FAIR      21  11  66 CALM      30.33R
EMPORIA*       CLEAR     21  12  68 W3        30.36S
$$

VAZ088>098-311400-
SOUTHEAST VIRGINIA

CITY           SKY/WX    TMP DP  RH WIND       PRES   REMARKS
NORFOLK        CLEAR     25   4  40 VRB7G18   30.32R
VIRGINIA BEACH PTCLDY    26   6  42 NW21G30   30.31R WCI  12
NORFOLK NAVAL  PTCLDY    27   7  42 NW10      30.35R WCI  17
WEST POINT*    CLEAR     24   4  43 NW7       30.37R
SALUDA*        FAIR      22   7  53 NW14G25   30.32R WCI   9
NEWPORT NEWS   CLEAR     25   6  44 NW10      30.34R WCI  15
LANGLEY AFB    CLEAR     24   5  44 NW15G26   30.33R WCI  11
FORT EUSTIS    CLEAR     23   7  50 N8G18     30.33R
WILLIAMSBURG*    N/A     25   9  50 N10       30.35R WCI  15
HR EXEC AP*    FAIR      21   9  58 NW5       30.36R
FRANKLIN*      CLEAR     21   9  59 NW5       30.36R
WAKEFIELD      CLEAR     23   8  52 CALM      30.35R
$$

VAZ020-022-025-037-045-311400-
WEST CENTRAL AND SOUTHWEST VIRGINIA

CITY           SKY/WX    TMP DP  RH WIND       PRES   REMARKS
STAUNTON*      CLEAR     13   8  77 CALM      30.29R
WAYNESBORO*    FAIR      19   1  44 W7        30.24S
HOT SPRINGS VA CLEAR     11  -2  55 W18       30.06R WCI  -7
LYNCHBURG      CLEAR     16  10  77 CALM      30.31R
DANVILLE       CLEAR     18  10  71 S3        30.35R
SOUTH BOSTON*  FAIR      19  14  78 CALM      30.34S
MARTINSVILLE   CLEAR     18  11  76 CALM      30.35R
ROANOKE        PTCLDY    23   7  50 SW5       30.31R
BLACKSBURG     CLEAR     17   9  68 W9        30.28R
DUBLIN*        CLEAR     20  10  63 CALM      30.28R
MARION*        PTCLDY    19  12  72 W13       30.29R WCI   7
HILLSVILLE*      N/A     19   9  63 W15       30.23R WCI   5
RICHLANDS*     FAIR      19   9  65 CALM      30.27S
WISE*          CLEAR     19  10  68 S3        30.29R
ABINGDON*      CLEAR     21  13  71 W3        30.32S
$$

MDZ021>025-VAZ099-100-311400-
SOUTHERN MARYLAND AND THE DELMARVA PENINSULA

CITY           SKY/WX    TMP DP  RH WIND       PRES   REMARKS
PATUXENT RIVER PTCLDY    20   4  50 W17G23    30.31R WCI   5
BAY BRIDGE APT   N/A     21   7  53 NW17G25   30.30S WCI   7
LEONARDTOWN    CLEAR     19   3  49 W12       30.33R WCI   7
DOVER          CLEAR     17  -1  44 NW18      30.25R WCI   1
GEORGETOWN     CLEAR     19  -2  39 NW10G21   30.26R WCI   7
EASTON         CLEAR     21   9  58 NW22      30.31R WCI   5
CAMBRIDGE      NOT AVBL
SALISBURY      CLEAR     22   3  44 NW17G28   30.26R WCI   8
OCEAN CITY     CLEAR     19   0  43 NW10G23   30.25R WCI   7
WALLOPS ISLAND CLEAR     21   5  50 NW15G23   30.28R WCI   8
ACCOMACK*      CLEAR     23   9  54 NW14G25   30.29R WCI  11
$$

NCZ012>017-030>032-311400-
NORTH CENTRAL AND EASTERN NORTH CAROLINA

CITY           SKY/WX    TMP DP  RH WIND       PRES   REMARKS
ROANOKE RAPIDS FAIR      25  16  68 W3        30.35R
RALEIGH        PTCLDY    26   8  46 CALM      30.35R
ELIZABETH CITY CLEAR     24  10  55 NW13      30.33R WCI  12
AHOSKIE*       CLEAR     24  12  60 CALM      30.35S
EDENTON*       CLEAR     27  15  62 N10       30.33R WCI  17
CURRITUCK*     CLEAR     24  10  53 NW6       30.32S
KILL DEVIL HLS CLEAR     27  11  50 NW8G18    30.27S
MANTEO         CLEAR     27  12  54 N14G24    30.29S WCI  15
CAPE HATTERAS  CLEAR     30  15  53 NW10G23   30.29R WCI  21
TARBORO*       FAIR      28  12  52 NW5       30.36R
GOLDSBORO      CLEAR     32  14  47 NW7       30.29S
WASHINGTON     CLEAR     26  13  59 NW5       30.34R
GREENVILLE     CLEAR     28  14  54 NW3       30.35R
NEW BERN       CLEAR     30  12  47 NW10      30.35R WCI  21
WILMINGTON     CLEAR     29  14  53 N6        30.36R
$$

VAZ048-311400-
ELSEWHERE

CITY           SKY/WX    TMP DP  RH WIND       PRES   REMARKS
HARRISBURG PA  PTCLDY    13   1  59 NW14      30.30R WCI  -2
BALTIMORE      CLEAR     18   5  57 W13       30.30R WCI   5
ANNAPOLIS      CLEAR     20   7  57 NW10      30.30R WCI   9
ANDREWS AFB    CLEAR     19   3  51 NW14      30.31R WCI   5
PHILADELPHIA   CLEAR     15  -3  44 NW20      30.24R WCI  -2
HENDERSON NC   CLEAR     23  10  58 CALM      30.34R
GREENSBORO     MOCLDY    25   9  50 CALM      30.31S
ROCKY MOUNT    CLEAR     28  10  46 NW8       30.35R
$$

VAZ100-311400-
MARINE

STATION/POSITION TIME  TEMP    WIND        PRES    WAVE   SWELL
                       AIR SEA DIR/SP/G            HT/PER HT/PER
                 (UTC) (F)     (DEG/KT/KT) (MB)    (FT/S) (FT/S)
BRANDYWINE LGT   1300   18 35  330/ 23/ 31 1023.1R
CAPE MAY NJ      1300   19 32              1022.9R
LEWES DE         1300   19     320/ 28/ 34 1023.6R
15NM E FENWICK I 1300   22 39              1021.9R   9/ 7
OCEAN-CITY-INLET 1300   20 37  340/ 18/ 21 1023.5R
WACHAPREAGUE VA  1300   23 34  330/  5/ 11 1025.2R
THOMAS POINT MD  1300   20 33  310/ 16/ 19 1027.1R
GOOSES REEF MD   1300   22 36  VRB 17/ 23  1025.3R   2/ 3
COVE POINT MD    1300   19     330/ 14/ 21 1025.8R
SOLOMONS ISLAND  1300      36                N/A
BISHOPS HEAD MD  1300   21 30  320/ 16/ 22 1025.3R
PINEY POINT MD   1300          340/ 26/ 27   N/A
POTOMAC MD       1300   23 36  330/ 21/ 25 1025.2R   3/ 3
CAMBRIDGE MD     1300   22 32  320/ 18/ 25 1025.4R
LEWISETTA VA     1300   22 33  320/ 15/ 19 1026.7R
RAPPAHANNOCK LGT 1300          320/ 23/ 28 1026.5R
STINGRAY PT      1300   23 37  320/ 17/ 23 1026.9R   2/ 3
YORK RVR RNG VA  1300   24     320/ 17/ 20 1026.3R
YORKTOWN VA      1300   24 38  320/ 17/ 20 1026.9S
JAMESTOWN VA     1300   22 39  360/ 10/ 14   N/A     0
DOMINION TERM VA 1300   25     340/  7/ 16 1027.0R
KIPTOPEKE VA     1300      41  340/ 23/ 28   N/A
CHES BAY BRIDGE  1300   25 38  310/ 25/ 30 1026.4R
CAPE HENRY VA    1300   25     310/ 22/ 29 1025.0R
CHESAPEAKE LGHT  1200   24     330/ 27/ 31 1025.3R
WILLOUBY STN VA  1300   24     320/ 12/ 14 1027.3S
S CRANEY ISL VA  1300          330/ 13/ 17 1027.0R
CAPE HENRY BUOY  1200      42                N/A     6/ 5
1ST LANDING BUOY 1300   26 39  320/ 25/ 33 1026.2R   4/ 4
CAPE CHARLES BUO 1300      40                N/A     5/ 4   2/ 8
OFFSHORE WE BUOY 1300      43                N/A     8/ 7   2/11
64NM E OF VA BCH 1300   29 48  320/ 27/ 33 1022.8R  10/ 8
DUCK PIER NC     1300   27 40  320/ 18/ 25 1024.6R
44100 DUCK FRF   1300      44                N/A     8/ 7   2/11
44056 DUCK FRF   1300      42                N/A     6/ 7
OREGON INLET NC  1300   27 39  320/ 19/ 23 1025.2S
HATTERAS NC      1300   31 40  330/ 23/ 28 1025.7S



USA.gov is the U.S. government's official web portal to all federal, state and local government web resources and services.